TimeMDT,TemperatureF,Dew PointF,Humidity,Sea Level PressureIn,VisibilityMPH,Wind Direction,Wind SpeedMPH,Gust SpeedMPH,PrecipitationIn,Events,Conditions,WindDirDegrees,DateUTC
12:53 AM,57.0,50.0,77,29.93,10.0,East,3.5,-,N/A,,Mostly Cloudy,80,2013-09-15 06:53:00
1:53 AM,57.9,51.1,78,29.93,10.0,Calm,Calm,-,N/A,,Mostly Cloudy,0,2013-09-15 07:53:00
2:53 AM,57.9,53.1,84,29.93,10.0,ESE,4.6,-,0.00,,Overcast,120,2013-09-15 08:53:00
3:53 AM,57.0,53.1,87,29.93,10.0,Calm,Calm,-,0.00,,Overcast,0,2013-09-15 09:53:00
4:53 AM,55.9,55.0,97,29.94,10.0,Calm,Calm,-,0.01,,Overcast,0,2013-09-15 10:53:00
5:53 AM,57.0,54.0,89,29.95,10.0,Calm,Calm,-,N/A,,Overcast,0,2013-09-15 11:53:00
6:53 AM,57.0,54.0,89,29.97,10.0,Calm,Calm,-,N/A,,Overcast,0,2013-09-15 12:53:00
7:53 AM,57.0,54.0,89,29.99,10.0,Calm,Calm,-,N/A,,Overcast,0,2013-09-15 13:53:00
8:53 AM,59.0,54.0,83,30.01,10.0,Calm,Calm,-,N/A,,Overcast,0,2013-09-15 14:53:00
9:53 AM,61.0,54.0,78,30.03,10.0,Calm,Calm,-,N/A,,Overcast,0,2013-09-15 15:53:00
10:53 AM,63.0,53.1,70,30.02,10.0,Calm,Calm,-,N/A,,Mostly Cloudy,0,2013-09-15 16:53:00
11:53 AM,66.9,52.0,59,30.01,10.0,Calm,Calm,-,N/A,,Partly Cloudy,0,2013-09-15 17:53:00
12:53 PM,69.1,50.0,51,30.00,10.0,SW,3.5,-,N/A,,Mostly Cloudy,230,2013-09-15 18:53:00
1:53 PM,71.1,52.0,51,29.98,10.0,ESE,11.5,-,N/A,,Scattered Clouds,120,2013-09-15 19:53:00
2:53 PM,71.1,46.9,42,29.96,10.0,SE,6.9,-,N/A,,Mostly Cloudy,140,2013-09-15 20:53:00
3:53 PM,70.0,48.0,46,29.96,10.0,WNW,5.8,-,0.00,,Mostly Cloudy,300,2013-09-15 21:53:00
4:42 PM,69.8,48.2,46,30.12,10.0,Calm,Calm,-,N/A,Thunderstorm,Overcast,0,2013-09-15 22:42:00
4:53 PM,68.0,50.0,52,29.97,10.0,Calm,Calm,-,N/A,,Overcast,0,2013-09-15 22:53:00
5:53 PM,64.0,55.9,75,29.98,10.0,NE,3.5,-,0.05,,Mostly Cloudy,40,2013-09-15 23:53:00
6:09 PM,64.4,55.4,73,30.13,10.0,ESE,4.6,-,0.00,Rain-Thunderstorm,Light Rain,110,2013-09-16 00:09:00
6:26 PM,66.2,55.4,68,30.13,10.0,East,5.8,-,0.00,,Scattered Clouds,90,2013-09-16 00:26:00
6:53 PM,66.0,55.0,68,29.99,10.0,East,4.6,-,0.00,,Mostly Cloudy,80,2013-09-16 00:53:00
7:53 PM,64.0,54.0,70,30.01,10.0,ENE,11.5,-,N/A,,Clear,70,2013-09-16 01:53:00
8:53 PM,63.0,53.1,70,30.03,10.0,East,10.4,-,N/A,,Partly Cloudy,80,2013-09-16 02:53:00
9:53 PM,62.1,53.1,72,30.03,10.0,ESE,5.8,-,N/A,,Scattered Clouds,110,2013-09-16 03:53:00
10:53 PM,61.0,52.0,72,30.04,10.0,ENE,9.2,-,N/A,,Scattered Clouds,70,2013-09-16 04:53:00
11:53 PM,61.0,52.0,72,30.03,10.0,ENE,6.9,-,N/A,,Overcast,70,2013-09-16 05:53:00